Meteo Giornale » Osservazioni meteo Stati Uniti (USA) » Los Angeles

ore: 23:53 - Osservazioni Meteo Los Angeles
Lat. 33° 56' N Lon. 118° 23' W Alt. 38 metri s.l.m.

coperto America/Los_Angeles

18 °C

Coperto

Temp. 24 Ore

18 °C

23 °C

Ovest

7.4 Km/h

Dew point 16 °C

Umidità 88 %

Visibilità  14 Km

Il sole sorge alle ore 05:41

Il sole tramonta alle ore 20:09

Data e Ora Cielo e Fenomeni T °C DP °C Um. % Pres. hPa Vis. km Vento km/h
Ieri h: 23:53 coperto Coperto 18 16 88 1013 14 O 7.4
Ieri h: 22:53 coperto Coperto 18 16 88 1013 10 N 5.5
Ieri h: 21:53 coperto Coperto 18 16 88 1013 10 O 9.3
Ieri h: 20:53 coperto Coperto 18 16 88 1013 10 O 11.1
Ieri h: 19:53 coperto Coperto 18 16 88 1012 10 SO 14.8
Ieri h: 18:53 coperto Coperto 19 16 82 1012 10 O 16.7
Ieri h: 17:53 coperto Coperto 19 16 82 1012 10 O/SO 18.5
Ieri h: 17:12 coperto Coperto 20 16 77 1012 10 O 20.3
Ieri h: 16:53 coperto Coperto 21 16 73 1012 14 O/SO 18.5
Ieri h: 16:36 molto_nuvoloso Molto Nuvoloso 21 16 73 1012 14 SO 16.7
Ieri h: 15:53 poco_nuvoloso Poco Nuvoloso 22 16 68 1012 11 O/SO 20.3
Ieri h: 14:53 poco_nuvoloso Poco Nuvoloso 23 16 64 1013 11 O 18.5
Ieri h: 13:53 poco_nuvoloso Poco Nuvoloso 22 16 68 1014 10 O 18.5
Ieri h: 13:00 nuvoloso Nuvoloso 22 16 68 1014 11 O/SO 13
Ieri h: 12:53 molto_nuvoloso Molto Nuvoloso 22 16 68 1014 11 O 13
Ieri h: 12:45 molto_nuvoloso Molto Nuvoloso 22 16 68 1014 11 O/SO 16.7
Ieri h: 12:23 molto_nuvoloso Molto Nuvoloso 21 16 73 1014 11 SO 13
Ieri h: 11:53 molto_nuvoloso Molto Nuvoloso 21 16 73 1014 11 SO 14.8
Ieri h: 10:53 foschia Foschia 20 16 77 1014 10 O/SO 14.8
Ieri h: 09:53 foschia Foschia 20 16 77 1014 8 N 7.4
Ieri h: 08:53 foschia Foschia 19 15 77 1014 10 N 5.5
Ieri h: 07:53 foschia Foschia 18 15 82 1014 8 N 5.5
Ieri h: 06:53 foschia Foschia 18 15 82 1014 10 N 5.5
Ieri h: 05:53 foschia Foschia 18 15 82 1013 8 E/NE 7.4
Ieri h: 04:53 coperto Coperto 18 15 82 1013 11 N 0
Ieri h: 03:53 coperto Coperto 18 15 82 1013 11 SE 9.3
Ieri h: 02:53 coperto Coperto 18 15 82 1013 11 E 7.4
Ieri h: 01:53 coperto Coperto 18 15 82 1013 11 E/SE 13
Ieri h: 00:53 coperto Coperto 18 15 82 1014 13 N 9.3